Location: Guilderland
(42.7045°N, 73.9115°W)
Time: 06:48:05
(UTC+00:00)

USA 116 - Pass Details

Date: 24 January 2020
Orbit: 405 x 834 km, 97.9° (Epoch: 18 November)

Event Time Altitude Azimuth Distance (km) Brightness Sun altitude
Exits shadow 23:43:22 25° 358° (N) 884 4.7 -19.3°
Maximum altitude 23:45:00 60° 286° (WNW) 472 3.6 -19.6°
Drops below altitude 10° 23:48:02 10° 205° (SSW) 1,464 6.3 -20.1°
Sets 23:50:02 0° 202° (SSW) 2,333 7.3 -20.5°
